Stations météo

Publicité
Gourette, France (7775): Température de l'air & dewpoint: 13.10.2017 21:00:00 - 19.10.2017 21:00:00 (CEST)Gourette, France (7775): Vitesse du vent & gusts: 13.10.2017 21:00:00 - 19.10.2017 21:00:00 (CEST)Gourette, France (7775): Direction du vent: 13.10.2017 21:00:00 - 19.10.2017 21:00:00 (CEST)Gourette, France (7775): reduced air pressure: 13.10.2017 21:00:00 - 19.10.2017 21:00:00 (CEST)Gourette, France (7775): visibility: 13.10.2017 21:00:00 - 19.10.2017 21:00:00 (CEST)Gourette, France (7775): Quantités de précipitations: 13.10.2017 21:00:00 - 19.10.2017 21:00:00 (CEST)
Date & Time tt [°C] td [°C] ff [km/h] ff [knt] fx [km/h] fx [knt] dd ppp [hPa] vv [km] rr [mm]
19.10.2017 21:00:00 19,4 16,6 17 9 36 20 S 1016,2 - 0,0
19.10.2017 20:00:00 19,4 16,2 22 12 38 20 SSE 1016,2 - 0,0
19.10.2017 19:00:00 19,6 16,2 20 11 37 20 SSE 1015,9 - 0,0
19.10.2017 18:00:00 19,9 16,3 21 11 36 19 SSE 1015,9 - 0,0
19.10.2017 17:00:00 20,1 16,1 23 13 42 23 SSE 1015,7 25 0,0
19.10.2017 16:00:00 21,8 16,5 23 12 40 22 SSE 1015,7 - 0,0
19.10.2017 15:00:00 22,6 16,4 24 13 44 24 SSE 1016,1 - 0,0
19.10.2017 14:00:00 22,4 16,2 24 13 39 21 SSE 1016,6 - 0,0
19.10.2017 13:00:00 22,6 16,4 23 13 37 20 SE 1017,1 - 0,0
19.10.2017 12:00:00 22,6 15,7 20 11 29 16 SSE 1017,4 - 0,0
19.10.2017 11:00:00 22,3 15,4 16 9 28 15 S 1017,2 20 0,0
19.10.2017 10:00:00 20,9 15,2 18 10 27 15 SSW 1017,3 - 0,0
19.10.2017 09:00:00 18,2 15,1 19 11 27 15 SW 1017,2 - 0,0
19.10.2017 08:00:00 16,7 13,8 20 11 29 16 SW 1017,1 20 0,0
19.10.2017 07:00:00 15,9 12,8 13 7 23 12 SW 1017,0 - 0,0
19.10.2017 06:00:00 16,4 13,1 16 9 23 12 SW 1017,2 - 0,2
19.10.2017 05:00:00 16,3 13,4 19 10 23 12 SW 1017,0 - 0,0
19.10.2017 04:00:00 16,2 13,7 19 10 23 12 SW 1017,1 - 0,0
19.10.2017 03:00:00 16,2 14,0 17 9 20 11 SW 1017,7 - 0,0
19.10.2017 02:00:00 16,5 14,3 18 10 23 12 SW 1017,9 - 0,0
19.10.2017 01:00:00 16,6 14,6 16 9 23 12 SW 1018,0 - 0,0
19.10.2017 00:00:00 16,7 14,7 17 9 19 10 SW 1018,3 - 0,0
18.10.2017 23:00:00 17,4 15,4 16 9 21 12 SSW 1018,5 - 0,0
18.10.2017 22:00:00 17,7 15,3 16 9 21 12 SSW 1018,2 - 0,0
18.10.2017 21:00:00 18,9 15,8 14 8 21 11 SSW 1018,1 - 0,0
18.10.2017 20:00:00 18,8 15,7 14 7 21 11 SSW 1018,1 - 0,0
18.10.2017 19:00:00 19,3 15,8 14 8 21 11 S 1017,9 - 0,0
18.10.2017 18:00:00 19,9 15,7 14 8 26 14 S 1017,7 - 0,0
18.10.2017 17:00:00 20,4 16,0 17 9 30 16 S 1017,8 15 0,0
18.10.2017 16:00:00 21,2 15,9 18 10 33 18 S 1017,8 - 0,0
18.10.2017 15:00:00 22,5 16,5 22 12 35 19 SSE 1018,3 - 0,0
18.10.2017 14:00:00 22,3 16,3 20 11 32 17 SSE 1018,9 - 0,0
18.10.2017 13:00:00 22,5 15,6 18 10 29 16 SE 1019,5 - 0,0
18.10.2017 12:00:00 22,7 14,8 11 6 23 12 SSE 1020,0 - 0,0
18.10.2017 11:00:00 22,4 14,3 14 8 22 12 SSW 1020,1 15 0,0
18.10.2017 10:00:00 20,9 14,3 11 6 18 10 SSW 1020,5 - 0,0
18.10.2017 09:00:00 17,8 13,5 9 5 12 6 SW 1020,6 - 0,0
18.10.2017 08:00:00 16,5 12,6 8 5 12 7 SW 1020,4 15 0,0
18.10.2017 07:00:00 16,3 13,2 11 6 14 8 SW 1020,5 - 0,0
18.10.2017 06:00:00 16,2 13,1 12 7 15 8 SW 1020,5 - 0,0
18.10.2017 05:00:00 16,4 11,5 12 6 15 8 SW 1020,9 - 0,0
18.10.2017 04:00:00 16,0 10,7 13 7 16 9 SW 1021,1 - 0,0
18.10.2017 03:00:00 15,6 10,1 13 7 17 9 SW 1021,4 - 0,0
18.10.2017 02:00:00 15,2 10,8 15 8 19 11 SW 1021,8 - 0,0
18.10.2017 01:00:00 15,2 12,3 18 10 20 11 SW 1021,9 - 0,0
18.10.2017 00:00:00 15,5 11,9 19 10 20 11 SW 1022,4 - 0,0
17.10.2017 23:00:00 15,7 12,8 16 9 23 12 SW 1022,6 - 0,0
17.10.2017 22:00:00 15,6 12,9 17 9 23 12 SW 1022,8 - 0,0
17.10.2017 21:00:00 16,0 13,8 14 8 16 9 SW 1022,8 - 0,0
17.10.2017 20:00:00 16,5 14,0 13 7 14 8 SW 1023,0 - 0,0
17.10.2017 19:00:00 18,0 14,3 11 6 14 7 S 1022,8 - 0,0
17.10.2017 18:00:00 19,5 15,2 9 5 19 10 SSE 1022,7 - 0,0
17.10.2017 17:00:00 21,3 15,2 12 7 22 12 SSE 1023,0 20 0,0
17.10.2017 16:00:00 21,7 15,3 11 6 23 12 SSE 1023,2 - 0,0
17.10.2017 15:00:00 21,6 14,7 14 8 23 13 SSE 1023,6 - 0,0
17.10.2017 14:00:00 23,2 15,0 9 5 22 12 ESE 1024,2 15 0,0
17.10.2017 13:00:00 22,4 15,0 9 5 18 10 SE 1025,1 - 0,0
17.10.2017 12:00:00 21,8 15,2 8 4 16 9 ESE 1025,5 - 0,0
17.10.2017 11:00:00 22,1 15,7 7 4 12 6 E 1025,7 10 0,0
17.10.2017 10:00:00 19,8 15,2 3 1 9 5 SW 1025,9 - 0,0
17.10.2017 09:00:00 16,7 12,8 5 3 9 5 W 1025,9 - 0,0
17.10.2017 08:00:00 16,2 14,4 4 2 8 4 NW 1025,5 - 0,0
17.10.2017 07:00:00 15,9 13,4 7 4 8 4 WSW 1025,4 - 0,0
17.10.2017 06:00:00 15,4 12,0 5 3 10 5 W 1025,5 - 0,2
17.10.2017 05:00:00 16,3 12,6 9 5 13 7 NNW 1025,6 - 0,0
17.10.2017 04:00:00 16,7 14,3 10 5 11 6 NW 1025,6 - 0,0
17.10.2017 03:00:00 16,6 14,2 9 5 17 9 N 1026,2 - 0,0
17.10.2017 02:00:00 16,6 14,2 12 6 17 9 N 1026,5 - 0,0
17.10.2017 01:00:00 16,5 14,5 13 7 18 10 N 1026,9 - 0,0
17.10.2017 00:00:00 16,8 14,1 11 6 13 7 N 1027,0 - 0,0
16.10.2017 23:00:00 17,1 14,6 8 4 10 5 N 1027,1 - 0,0
16.10.2017 22:00:00 17,2 14,3 3 1 6 4 NNE 1026,9 - 0,0
16.10.2017 21:00:00 17,7 15,0 4 2 7 4 NW 1026,9 - 0,0
16.10.2017 20:00:00 18,1 15,2 4 2 4 2 N 1026,9 20 0,0
16.10.2017 19:00:00 18,7 15,4 2 1 5 3 NNE 1026,8 - 0,0
16.10.2017 18:00:00 20,2 15,2 4 2 12 6 NNE 1026,8 - 0,0
16.10.2017 17:00:00 21,6 15,7 7 4 17 9 ENE 1027,0 - 0,0
16.10.2017 16:00:00 22,9 15,5 10 5 19 11 ENE 1027,2 - 0,0
16.10.2017 15:00:00 22,9 15,7 13 7 23 12 NE 1027,5 - 0,0
16.10.2017 14:00:00 22,9 15,5 16 8 24 13 ENE 1027,8 - 0,0
16.10.2017 13:00:00 23,9 15,4 17 9 26 14 NE 1028,0 - 0,0
16.10.2017 12:00:00 24,4 15,1 16 9 24 13 NNE 1028,2 - 0,0
16.10.2017 11:00:00 23,4 15,4 15 8 22 12 NE 1028,2 18 0,0
16.10.2017 10:00:00 20,9 15,4 11 6 17 9 NNE 1028,1 - 0,0
16.10.2017 09:00:00 18,0 13,9 9 5 15 8 NNW 1027,9 - 0,0
16.10.2017 08:00:00 16,0 12,5 13 7 16 8 NNW 1027,6 18 0,0
16.10.2017 07:00:00 16,6 12,7 12 6 14 8 NNW 1027,5 - 0,0
16.10.2017 06:00:00 16,4 13,3 12 7 16 9 NNW 1027,7 - 0,2
16.10.2017 05:00:00 16,3 13,4 15 8 18 10 NNW 1027,7 18 0,0
16.10.2017 04:00:00 16,1 13,8 15 8 19 10 NNW 1027,9 - 0,0
16.10.2017 03:00:00 16,1 13,8 16 9 21 11 N 1028,3 - 0,0
16.10.2017 02:00:00 16,5 14,3 16 9 19 11 N 1028,2 - 0,0
16.10.2017 01:00:00 16,2 13,9 14 8 17 9 N 1028,2 - 0,0
16.10.2017 00:00:00 16,3 13,6 11 6 14 7 N 1028,3 - 0,0
15.10.2017 23:00:00 16,9 13,6 12 7 14 7 N 1028,3 - 0,0
15.10.2017 22:00:00 17,1 14,6 9 5 10 6 NNW 1027,9 - 0,0
15.10.2017 21:00:00 16,4 14,6 8 4 9 5 NNW 1028,0 - 0,0
15.10.2017 20:00:00 17,5 14,6 8 5 9 5 NNW 1028,2 15 0,0
15.10.2017 19:00:00 18,5 15,2 8 4 15 8 N 1028,0 - 0,0
15.10.2017 18:00:00 20,1 15,5 10 6 24 13 NNE 1027,9 - 0,0
15.10.2017 17:00:00 22,5 15,6 18 10 31 17 NNE 1027,9 15 0,0
15.10.2017 16:00:00 24,3 15,8 18 10 30 16 NNE 1027,9 - 0,0
15.10.2017 15:00:00 24,6 16,1 19 10 29 16 NNE 1028,0 - 0,0
15.10.2017 14:00:00 24,4 16,1 18 10 25 13 NNE 1028,6 - 0,0
15.10.2017 13:00:00 22,9 16,0 15 8 22 12 ENE 1029,0 - 0,0
15.10.2017 12:00:00 22,0 15,4 13 7 23 12 ENE 1029,4 - 0,0
15.10.2017 11:00:00 23,4 15,4 11 6 20 11 NE 1029,5 13 0,0
15.10.2017 10:00:00 20,6 14,7 7 4 11 6 NNE 1029,3 - 0,0
15.10.2017 09:00:00 18,5 13,6 10 5 13 7 NNW 1029,1 - 0,0
15.10.2017 08:00:00 17,1 12,8 11 6 14 8 NNW 1028,8 18 0,0
15.10.2017 07:00:00 16,9 13,2 12 6 16 8 NNW 1028,6 - 0,0
15.10.2017 06:00:00 17,1 12,6 13 7 15 8 NNW 1028,6 - 0,0
15.10.2017 05:00:00 17,0 13,3 12 6 16 8 NNW 1028,4 20 0,0
15.10.2017 04:00:00 16,7 13,6 13 7 17 9 NNW 1028,3 - 0,0
15.10.2017 03:00:00 16,3 13,0 14 8 17 9 NNW 1028,4 - 0,0
15.10.2017 02:00:00 17,5 13,4 11 6 13 7 NNW 1028,3 - 0,0
15.10.2017 01:00:00 17,8 13,9 11 6 14 8 NNW 1028,4 - 0,0
15.10.2017 00:00:00 17,8 14,1 14 7 16 9 NNW 1028,6 - 0,0
14.10.2017 23:00:00 18,4 14,5 10 5 14 7 NNW 1028,5 - 0,0
14.10.2017 22:00:00 18,4 14,7 9 5 11 6 W 1028,4 - 0,0
14.10.2017 21:00:00 18,4 15,1 9 5 11 6 W 1028,2 - 0,0
14.10.2017 20:00:00 19,1 15,0 6 3 7 4 WSW 1028,1 - 0,0
14.10.2017 19:00:00 19,8 14,8 3 1 8 4 E 1027,8 - 0,0
14.10.2017 18:00:00 20,7 15,0 5 3 15 8 NNE 1027,5 - 0,0
14.10.2017 17:00:00 21,3 15,6 10 5 16 9 NE 1027,4 20 0,0
14.10.2017 16:00:00 21,2 15,3 11 6 20 11 ENE 1027,3 - 0,0
14.10.2017 15:00:00 22,9 15,2 12 7 24 13 E 1027,4 - 0,0
14.10.2017 14:00:00 23,2 15,0 12 6 21 12 E 1027,8 - 0,0
14.10.2017 13:00:00 23,8 14,8 13 7 23 13 ENE 1028,0 - 0,0
14.10.2017 12:00:00 22,9 14,5 16 9 25 13 ENE 1028,4 - 0,0
14.10.2017 11:00:00 22,9 14,2 11 6 16 9 ENE 1028,2 15 0,0
14.10.2017 10:00:00 20,3 14,6 0 0 12 7 N 1027,8 - 0,0
14.10.2017 09:00:00 18,7 13,8 10 5 15 8 NNW 1027,6 - 0,0
14.10.2017 08:00:00 17,9 13,4 11 6 14 7 NNW 1027,0 15 0,0
14.10.2017 07:00:00 17,6 13,1 9 5 11 6 NW 1026,8 - 0,0
14.10.2017 06:00:00 16,3 12,8 10 6 13 7 NW 1026,8 - 0,0
14.10.2017 05:00:00 16,5 13,0 10 5 14 8 NNW 1027,0 15 0,0
14.10.2017 04:00:00 16,5 13,2 10 5 14 8 NW 1027,1 - 0,0
14.10.2017 03:00:00 18,1 14,0 11 6 14 7 NW 1027,0 - 0,0
14.10.2017 02:00:00 18,3 13,8 10 5 14 8 NNW 1027,0 - 0,0
14.10.2017 01:00:00 17,7 14,0 14 7 18 10 NNW 1026,7 - 0,0
14.10.2017 00:00:00 17,2 13,3 15 8 18 10 NNW 1027,0 - 0,0
13.10.2017 23:00:00 17,9 13,2 12 6 14 7 NNW 1026,8 - 0,0
13.10.2017 22:00:00 18,7 13,3 5 3 10 5 WNW 1026,8 - 0,0
13.10.2017 21:00:00 19,0 13,8 2 1 6 3 W 1026,5 - 0,0

tt = Température de l'air
td = dewpoint
ff = Vitesse du vent
fx = gusts
dd = Direction du vent
ppp = reduced air pressure
vv = visibility
rr = Quantités de précipitations

stations d'obs. à proximité